Weather History for Marietta, GA

Change the Weather History Date:

Sunday, December 29, 2013

  Actual Average Record
Temperature  
Mean Temperature 44 °F -  
Max Temperature 48 °F 49 °F 68 °F (1996)
Min Temperature 40 °F 31 °F 21 °F (2000)
Degree Days  
Heating Degree Days 21    
Moisture  
Dew Point 42 °F    
Average Humidity 97    
Maximum Humidity 100    
Minimum Humidity 87    
Precipitation  
Precipitation 0.11 in - - ()
Sea Level Pressure  
Sea Level Pressure 29.94 in    
Wind  
Wind Speed 9 mph (NNW)    
Max Wind Speed 17 mph    
Max Gust Speed 22 mph    
Visibility 8 miles    
Events Rain    
Averages and records for this station are not official NWS values.
T = Trace of Precipitation, MM = Missing Value Source: NWS Daily Summary

Daily Weather History Graph

Daily Weather History Graph

Search for Another Location

Airport:

Trip Planner

Search our weather history database for the weather conditions in past years. The results will help you decide how hot, cold, wet, or windy it might be!

Date:

Astronomy

Dec. 29, 2013 Rise Set
Actual Time 7:42 AM EST 5:38 PM EST
Civil Twilight 7:14 AM EST 6:05 PM EST
Nautical Twilight 6:43 AM EST 6:36 PM EST
Astronomical Twilight 6:13 AM EST 7:07 PM EST
Moon 4:29 AM EST (12/29) 3:12 PM EST (12/29)
Length of Visible Light 10h 50m
Length of Day
9h 55m
Waning Crescent, 11% of the Moon is Illuminated
Dec 29
Waning Crescent
Jan 1
New
Jan 7
First Quarter
Jan 15
Full
Jan 24
Last Quarter

Hourly Weather History & Observations

Time (EST) Temp. Windchill Dew Point Humidity Pressure Visibility Wind Dir Wind Speed Gust Speed Precip Events Conditions
12:08 AM 41.0 °F 35.2 °F 41.0 °F 100% 29.99 in 6.0 mi East 9.2 mph - N/A Rain Light Rain
12:13 AM 41.0 °F 34.7 °F 41.0 °F 100% 29.98 in 4.0 mi East 10.4 mph - N/A Rain Light Rain
12:18 AM 41.0 °F 35.2 °F 41.0 °F 100% 29.98 in 7.0 mi East 9.2 mph 17.3 mph N/A Rain Light Rain
12:28 AM 41.0 °F 33.9 °F 41.0 °F 100% 29.97 in 6.0 mi East 12.7 mph - N/A Rain Light Rain
12:33 AM 41.0 °F 33.5 °F 41.0 °F 100% 29.97 in 8.0 mi East 13.8 mph - N/A Rain Light Rain
12:38 AM 41.0 °F 35.2 °F 41.0 °F 100% 29.96 in 9.0 mi East 9.2 mph - N/A Rain Light Rain
12:46 AM 41.0 °F 33.5 °F 41.0 °F 100% 29.95 in 10.0 mi East 13.8 mph 19.6 mph N/A   Overcast
12:49 AM 41.0 °F 33.5 °F 39.2 °F 93% 29.94 in 10.0 mi East 13.8 mph 19.6 mph N/A   Light Drizzle
12:58 AM 40.6 °F 34.8 °F 40.1 °F 98% 29.96 in 10.0 mi East 9.2 mph - 0.04 in   Light Drizzle
12:59 AM 41.0 °F 34.7 °F 39.2 °F 93% 29.94 in 9.0 mi East 10.4 mph - N/A   Overcast
1:01 AM 41.0 °F 34.3 °F 39.2 °F 93% 29.94 in 5.0 mi East 11.5 mph - N/A Rain Light Rain
1:06 AM 41.0 °F 33.9 °F 39.2 °F 93% 29.93 in 4.0 mi East 12.7 mph - N/A Rain Rain
1:16 AM 41.0 °F 34.7 °F 41.0 °F 100% 29.93 in 8.0 mi East 10.4 mph - N/A Rain Light Rain
1:21 AM 41.0 °F 33.9 °F 41.0 °F 100% 29.93 in 10.0 mi East 12.7 mph - N/A   Overcast
1:26 AM 41.0 °F 34.3 °F 41.0 °F 100% 29.92 in 10.0 mi East 11.5 mph - N/A   Overcast
1:51 AM 41.0 °F 35.8 °F 41.0 °F 100% 29.92 in 10.0 mi East 8.1 mph - N/A   Overcast
1:58 AM 40.6 °F 33.8 °F 40.3 °F 99% 29.94 in 10.0 mi East 11.5 mph - 0.03 in   Overcast
2:23 AM 41.0 °F 34.7 °F 41.0 °F 100% 29.90 in 7.0 mi East 10.4 mph - N/A   Overcast
2:33 AM 41.0 °F 34.7 °F 41.0 °F 100% 29.89 in 10.0 mi East 10.4 mph - N/A   Overcast
2:53 AM 41.0 °F 34.7 °F 41.0 °F 100% 29.88 in 10.0 mi East 10.4 mph - N/A   Overcast
2:58 AM 40.6 °F 33.8 °F 40.5 °F 99% 29.89 in 10.0 mi East 11.5 mph - 0.01 in   Overcast
3:08 AM 41.0 °F 35.2 °F 41.0 °F 100% 29.87 in 10.0 mi East 9.2 mph - N/A   Overcast
3:13 AM 41.0 °F 35.2 °F 41.0 °F 100% 29.87 in 10.0 mi East 9.2 mph - N/A   Overcast
3:53 AM 41.0 °F 38.0 °F 41.0 °F 100% 29.87 in 9.0 mi ENE 4.6 mph - N/A   Overcast
3:54 AM 41.0 °F - 41.0 °F 100% 29.87 in 8.0 mi Variable 2.3 mph - N/A   Light Drizzle
3:58 AM 41.2 °F - 40.8 °F 99% 29.89 in 6.0 mi Variable 2.3 mph - 0.00 in   Light Drizzle
4:03 AM 41.0 °F - 41.0 °F 100% 29.88 in 5.0 mi Calm Calm - N/A   Light Drizzle
4:23 AM 41.0 °F 37.1 °F 41.0 °F 100% 29.88 in 5.0 mi WNW 5.8 mph - N/A Rain Light Rain
4:33 AM 41.0 °F 37.1 °F 41.0 °F 100% 29.89 in 7.0 mi WNW 5.8 mph - N/A Rain Light Rain
4:48 AM 41.0 °F 37.1 °F 41.0 °F 100% 29.90 in 7.0 mi WNW 5.8 mph - N/A Rain Light Rain
4:58 AM 41.0 °F 38.0 °F 41.0 °F 100% 29.94 in 8.0 mi West 4.6 mph - 0.02 in Rain Light Rain
5:03 AM 41.0 °F 38.0 °F 41.0 °F 100% 29.92 in 7.0 mi West 4.6 mph - N/A Rain Light Rain
5:13 AM 41.0 °F - 41.0 °F 100% 29.90 in 6.0 mi NW 2.3 mph - N/A   Light Drizzle
5:18 AM 41.0 °F 39.0 °F 41.0 °F 100% 29.89 in 5.0 mi NNE 3.5 mph - N/A   Light Drizzle
5:23 AM 41.0 °F - 41.0 °F 100% 29.89 in 7.0 mi North 2.3 mph - N/A   Light Drizzle
5:28 AM 41.0 °F 39.0 °F 41.0 °F 100% 29.89 in 9.0 mi North 3.5 mph - N/A   Light Drizzle
5:33 AM 41.0 °F - 41.0 °F 100% 29.88 in 10.0 mi NNE 2.3 mph - N/A   Light Drizzle
5:38 AM 41.0 °F - 41.0 °F 100% 29.88 in 10.0 mi ENE 2.3 mph - N/A   Light Drizzle
5:44 AM 41.0 °F - 41.0 °F 100% 29.88 in 10.0 mi Variable 1.2 mph - N/A   Overcast
5:49 AM 41.0 °F - 41.0 °F 100% 29.88 in 10.0 mi North 1.2 mph - N/A   Overcast
5:58 AM 41.5 °F - 41.4 °F 99% 29.90 in 10.0 mi Calm Calm - 0.01 in   Overcast
6:13 AM 41.0 °F 39.0 °F 41.0 °F 100% 29.88 in 10.0 mi NW 3.5 mph - N/A   Overcast
6:15 AM 41.0 °F - 41.0 °F 100% 29.87 in 10.0 mi Variable 2.3 mph - N/A Rain Light Rain
6:35 AM 41.0 °F 39.0 °F 41.0 °F 100% 29.87 in 10.0 mi NNW 3.5 mph - N/A   Overcast
6:42 AM 41.0 °F - 41.0 °F 100% 29.87 in 7.0 mi NW 2.3 mph - N/A   Overcast
6:58 AM 42.8 °F 40.1 °F 41.0 °F 93% 29.91 in 7.0 mi WNW 4.6 mph - 0.00 in   Overcast
7:34 AM 42.8 °F 39.3 °F 41.0 °F 93% 29.91 in 7.0 mi WNW 5.8 mph - N/A   Overcast
7:50 AM 42.8 °F 41.1 °F 41.0 °F 93% 29.89 in 4.0 mi NW 3.5 mph - N/A   Overcast
7:58 AM 42.1 °F 38.4 °F 41.9 °F 99% 29.93 in 4.0 mi West 5.8 mph - N/A   Overcast
8:41 AM 42.8 °F 38.6 °F 42.8 °F 100% 29.92 in 5.0 mi WNW 6.9 mph - N/A   Overcast
8:58 AM 43.2 °F 39.7 °F 43.0 °F 99% 29.94 in 5.0 mi WNW 5.8 mph - N/A   Overcast
9:36 AM 44.6 °F 38.8 °F 44.6 °F 100% 29.94 in 5.0 mi WNW 11.5 mph - N/A   Overcast
9:58 AM 44.4 °F 38.6 °F 44.2 °F 99% 29.97 in 7.0 mi WNW 11.5 mph - N/A   Overcast
10:30 AM 44.6 °F 38.4 °F 44.6 °F 100% 29.96 in 7.0 mi WNW 12.7 mph - N/A   Overcast
10:48 AM 46.4 °F 39.8 °F 44.6 °F 93% 29.96 in 10.0 mi West 16.1 mph - N/A   Overcast
10:58 AM 45.5 °F 38.3 °F 44.4 °F 96% 29.99 in 10.0 mi West 17.3 mph 21.9 mph N/A   Overcast
11:23 AM 46.4 °F 41.1 °F 44.6 °F 93% 29.97 in 7.0 mi WNW 11.5 mph - N/A   Overcast
11:28 AM 46.4 °F 40.4 °F 44.6 °F 93% 29.97 in 7.0 mi WNW 13.8 mph - N/A   Overcast
11:58 AM 46.2 °F 42.7 °F 43.9 °F 92% 29.98 in 10.0 mi WNW 6.9 mph - N/A   Overcast
12:01 PM 46.4 °F 41.9 °F 44.6 °F 93% 29.96 in 10.0 mi NW 9.2 mph - N/A   Overcast
12:58 PM 47.3 °F - 44.6 °F 90% 29.96 in 10.0 mi WNW 8.1 mph - N/A   Overcast
1:33 PM 46.4 °F 40.7 °F 44.6 °F 93% 29.96 in 10.0 mi West 12.7 mph - N/A   Overcast
1:43 PM 46.4 °F 40.7 °F 44.6 °F 93% 29.95 in 10.0 mi WNW 12.7 mph - N/A   Overcast
1:58 PM 46.6 °F - 43.7 °F 90% 29.96 in 10.0 mi West 12.7 mph - N/A   Overcast
2:38 PM 46.4 °F 41.5 °F 44.6 °F 93% 29.95 in 10.0 mi West 10.4 mph - N/A   Overcast
2:58 PM 47.1 °F - 43.7 °F 88% 29.96 in 10.0 mi WNW 12.7 mph - N/A   Overcast
3:57 PM 48.2 °F - 44.6 °F 87% 29.95 in 10.0 mi WNW 6.9 mph - N/A   Overcast
3:58 PM 47.8 °F - 44.2 °F 87% 29.96 in 10.0 mi WNW 6.9 mph - N/A   Overcast
4:24 PM 48.2 °F - 44.6 °F 87% 29.96 in 10.0 mi WNW 8.1 mph - N/A   Overcast
4:52 PM 48.2 °F - 44.6 °F 87% 29.98 in 10.0 mi WNW 8.1 mph - N/A   Overcast
4:58 PM 47.7 °F - 44.2 °F 88% 30.00 in 10.0 mi West 8.1 mph - N/A   Overcast
5:58 PM 46.6 °F - 44.1 °F 91% 30.01 in 10.0 mi WNW 10.4 mph - N/A   Overcast
6:25 PM 46.4 °F 41.5 °F 44.6 °F 93% 29.99 in 10.0 mi West 10.4 mph - N/A   Overcast
6:58 PM 45.5 °F 41.8 °F 43.3 °F 92% 30.03 in 10.0 mi West 6.9 mph - N/A   Mostly Cloudy
7:34 PM 41.0 °F 37.1 °F 41.0 °F 100% 30.01 in 10.0 mi West 5.8 mph - N/A   Scattered Clouds
7:58 PM 42.1 °F 39.2 °F 41.2 °F 97% 30.05 in 10.0 mi West 4.6 mph - N/A   Mostly Cloudy
8:58 PM 41.5 °F 38.6 °F 40.8 °F 97% 30.05 in 10.0 mi WNW 4.6 mph - N/A   Mostly Cloudy
9:58 PM 41.2 °F 38.2 °F 40.6 °F 98% 30.06 in 10.0 mi West 4.6 mph - N/A   Mostly Cloudy
10:58 PM 41.2 °F - 40.3 °F 97% 30.06 in 10.0 mi Calm Calm - N/A   Mostly Cloudy
11:58 PM 40.1 °F 38.0 °F 39.7 °F 99% 30.07 in 10.0 mi WNW 3.5 mph - N/A   Clear